Location: ??????
(38.0677°N, 22.9870°E)
Time: 09:51:07
(UTC+00:00)

DELTA 2 R/B (1) - Pass Details

Date: 23 May 2024
Orbit: 789 x 801 km, 39.6° (Epoch: 23 June)

Event Time Altitude Azimuth Distance (km) Brightness Sun altitude
Exits shadow 00:26:15 35° 284° (WNW) 1,258 4.4 -24.7°
Maximum altitude 00:28:40 77° 4° (N) 815 3.6 -24.5°
Drops below altitude 10° 00:34:12 10° 90° (E) 2,347 6.4 -23.9°
Sets 00:36:41 0° 92° (E) 3,275 7.2 -23.6°
